Location: Peterborough
(44.3091°N, 78.3197°W)
Time: 06:44:15
(UTC-05:00)

Transit 4A - Pass Details

Date: 29 September 2023
Orbit: 864 x 979 km, 66.8° (Epoch: 07 December)

Event Time Altitude Azimuth Distance (km) Brightness Sun altitude
Rises 22:11:26 0° 321° (NW) 3,668 12.0 -33.7°
Reaches altitude 10° 22:14:12 10° 314° (NW) 2,706 11.1 -34.1°
Enters shadow 22:19:47 36° 252° (WSW) 1,456 9.0 -34.9°
